WZZ11S SPJC-SPZO

Flight info

Callsign WZZ11S
Flight time 0h 53m
Altitude 37000
Route JCL DCT LPA DCT AND DCT ZCO
Aircraft A320/M-SDE3FGHIRWY/LB1

Departure

Time 2026-05-08 10:32
Airport Jorge Chávez International Airport (SPJC)

Arrival

Time 2026-05-08 11:26
Airport Alejandro Velasco Astete International Airport (SPZO)
Time Latitude Longitude Altitude Speed Heading
2026-05-08 10:14 -12.00777 -77.11687 43 ft 0 kts 65°
2026-05-08 10:24 -12.00782 -77.11698 41 ft 2 kts 62°
2026-05-08 10:24 -12.00792 -77.11712 41 ft 2 kts 80°
2026-05-08 10:25 -12.00799 -77.11727 39 ft 2 kts 15°
2026-05-08 10:25 -12.00808 -77.11729 38 ft 0 kts 341°
2026-05-08 10:27 -12.00807 -77.11729 38 ft 1 kts 341°
2026-05-08 10:27 -12.00796 -77.11742 39 ft 2 kts 285°
2026-05-08 10:28 -12.00807 -77.11768 41 ft 6 kts 249°
2026-05-08 10:28 -12.00826 -77.11820 41 ft 10 kts 252°
2026-05-08 10:28 -12.00812 -77.11893 39 ft 14 kts 322°
2026-05-08 10:28 -12.00717 -77.11949 37 ft 18 kts 331°
2026-05-08 10:29 -12.00703 -77.12064 35 ft 20 kts 239°
2026-05-08 10:29 -12.00787 -77.12117 32 ft 0 kts 153°
2026-05-08 10:31 -12.00791 -77.12115 33 ft 1 kts 153°
2026-05-08 10:31 -12.00889 -77.12065 35 ft 48 kts 154°
2026-05-08 10:32 -12.01405 -77.11820 51 ft 112 kts 153°
2026-05-08 10:32 -12.02256 -77.11414 65 ft 156 kts 159°
2026-05-08 10:32 -12.03232 -77.10898 667 ft 155 kts 152°
2026-05-08 10:32 -12.04152 -77.10324 1285 ft 157 kts 144°
2026-05-08 10:33 -12.04765 -77.09331 1525 ft 184 kts 104°
2026-05-08 10:33 -12.04900 -77.07939 1720 ft 209 kts 96°
2026-05-08 10:33 -12.05029 -77.06370 1968 ft 232 kts 95°
2026-05-08 10:33 -12.05173 -77.04644 2198 ft 255 kts 96°
2026-05-08 10:34 -12.05333 -77.02794 2641 ft 264 kts 97°
2026-05-08 10:34 -12.05786 -77.00970 3290 ft 267 kts 110°
2026-05-08 10:34 -12.06524 -76.99226 4258 ft 268 kts 116°
2026-05-08 10:34 -12.07362 -76.97517 5221 ft 270 kts 118°
2026-05-08 10:35 -12.08229 -76.95802 6127 ft 274 kts 118°
2026-05-08 10:35 -12.09105 -76.94055 6932 ft 279 kts 117°
2026-05-08 10:35 -12.09978 -76.92270 7776 ft 282 kts 117°
2026-05-08 10:35 -12.10848 -76.90454 8581 ft 286 kts 116°
2026-05-08 10:36 -12.11717 -76.88608 9411 ft 290 kts 116°
2026-05-08 10:36 -12.12593 -76.86736 10182 ft 294 kts 116°
2026-05-08 10:36 -12.13509 -76.84775 10448 ft 317 kts 115°
2026-05-08 10:36 -12.14491 -76.82661 10628 ft 340 kts 115°
2026-05-08 10:37 -12.15536 -76.80404 10791 ft 361 kts 115°
2026-05-08 10:37 -12.16624 -76.78053 11239 ft 369 kts 115°
2026-05-08 10:37 -12.17729 -76.75667 11819 ft 373 kts 115°
2026-05-08 10:37 -12.18829 -76.73290 12412 ft 377 kts 115°
2026-05-08 10:38 -12.19958 -76.70852 13007 ft 380 kts 115°
2026-05-08 10:38 -12.21094 -76.68402 13598 ft 383 kts 115°
2026-05-08 10:38 -12.22244 -76.65923 14134 ft 386 kts 115°
2026-05-08 10:38 -12.23397 -76.63436 14707 ft 388 kts 115°
2026-05-08 10:39 -12.24554 -76.60939 15243 ft 390 kts 115°
2026-05-08 10:39 -12.25715 -76.58431 15816 ft 391 kts 115°
2026-05-08 10:39 -12.26878 -76.55916 16384 ft 392 kts 115°
2026-05-08 10:39 -12.28047 -76.53386 16914 ft 395 kts 115°
2026-05-08 10:40 -12.29231 -76.50824 17178 ft 405 kts 115°
2026-05-08 10:40 -12.30453 -76.48183 17338 ft 417 kts 114°
2026-05-08 10:40 -12.31706 -76.45476 17640 ft 424 kts 115°
2026-05-08 10:40 -12.32974 -76.42736 18036 ft 428 kts 115°
2026-05-08 10:41 -12.34253 -76.39976 18430 ft 431 kts 114°
2026-05-08 10:41 -12.35539 -76.37195 18825 ft 434 kts 115°
2026-05-08 10:41 -12.36832 -76.34395 19258 ft 436 kts 115°
2026-05-08 10:41 -12.38131 -76.31581 19627 ft 439 kts 115°
2026-05-08 10:42 -12.39438 -76.28752 20013 ft 441 kts 115°
2026-05-08 10:42 -12.40753 -76.25913 20449 ft 442 kts 115°
2026-05-08 10:42 -12.42076 -76.23054 20792 ft 446 kts 115°
2026-05-08 10:42 -12.43404 -76.20172 21140 ft 450 kts 115°
2026-05-08 10:43 -12.44743 -76.17260 21483 ft 453 kts 115°
2026-05-08 10:43 -12.46085 -76.14334 21834 ft 456 kts 116°
2026-05-08 10:43 -12.47438 -76.11396 22170 ft 458 kts 116°
2026-05-08 10:43 -12.48798 -76.08441 22494 ft 460 kts 116°
2026-05-08 10:44 -12.50164 -76.05471 22820 ft 462 kts 116°
2026-05-08 10:44 -12.51535 -76.02490 23136 ft 464 kts 116°
2026-05-08 10:44 -12.52895 -75.99533 23406 ft 466 kts 116°
2026-05-08 10:44 -12.54280 -75.96521 23682 ft 469 kts 116°
2026-05-08 10:45 -12.55670 -75.93500 23912 ft 471 kts 116°
2026-05-08 10:45 -12.57070 -75.90460 24151 ft 474 kts 116°
2026-05-08 10:45 -12.58495 -75.87363 24362 ft 476 kts 116°
2026-05-08 10:45 -12.59912 -75.84284 24595 ft 479 kts 116°
2026-05-08 10:46 -12.61311 -75.81234 24826 ft 482 kts 116°
2026-05-08 10:46 -12.62738 -75.78115 25040 ft 484 kts 116°
2026-05-08 10:46 -12.64169 -75.74987 25268 ft 487 kts 116°
2026-05-08 10:46 -12.65616 -75.71825 25384 ft 492 kts 116°
2026-05-08 10:47 -12.67082 -75.68636 25501 ft 497 kts 116°
2026-05-08 10:47 -12.68562 -75.65420 25611 ft 502 kts 116°
2026-05-08 10:47 -12.70055 -75.62168 25749 ft 506 kts 116°
2026-05-08 10:47 -12.71557 -75.58893 25975 ft 509 kts 116°
2026-05-08 10:48 -12.73061 -75.55610 26265 ft 509 kts 116°
2026-05-08 10:48 -12.74569 -75.52319 26544 ft 511 kts 116°
2026-05-08 10:48 -12.76078 -75.49021 26820 ft 512 kts 116°
2026-05-08 10:48 -12.77593 -75.45704 27162 ft 512 kts 115°
2026-05-08 10:49 -12.79103 -75.42395 27502 ft 512 kts 115°
2026-05-08 10:49 -12.80610 -75.39087 27807 ft 514 kts 115°
2026-05-08 10:49 -12.82103 -75.35810 28129 ft 514 kts 115°
2026-05-08 10:49 -12.83617 -75.32491 28524 ft 514 kts 115°
2026-05-08 10:50 -12.85134 -75.29170 28883 ft 514 kts 115°
2026-05-08 10:50 -12.86649 -75.25850 29254 ft 514 kts 115°
2026-05-08 10:50 -12.88183 -75.22483 29627 ft 515 kts 115°
2026-05-08 10:50 -12.89678 -75.19197 29976 ft 516 kts 115°
2026-05-08 10:51 -12.91217 -75.15817 30325 ft 517 kts 115°
2026-05-08 10:51 -12.92738 -75.12479 30649 ft 517 kts 115°
2026-05-08 10:51 -12.94257 -75.09143 31000 ft 516 kts 115°
2026-05-08 10:51 -12.95777 -75.05811 31370 ft 516 kts 115°
2026-05-08 10:52 -12.97274 -75.02522 31742 ft 516 kts 115°
2026-05-08 10:52 -12.98786 -74.99191 32127 ft 515 kts 116°
2026-05-08 10:52 -13.00316 -74.95818 32529 ft 514 kts 116°
2026-05-08 10:52 -13.01824 -74.92495 32918 ft 514 kts 116°
2026-05-08 10:53 -13.03335 -74.89168 33320 ft 514 kts 116°
2026-05-08 10:53 -13.04844 -74.85848 33716 ft 513 kts 116°
2026-05-08 10:53 -13.06331 -74.82574 34139 ft 513 kts 116°
2026-05-08 10:53 -13.07858 -74.79218 34516 ft 513 kts 116°
2026-05-08 10:54 -13.09344 -74.75945 34889 ft 512 kts 116°
2026-05-08 10:54 -13.10799 -74.72727 35086 ft 513 kts 116°
2026-05-08 10:54 -13.12297 -74.69410 35143 ft 512 kts 116°
2026-05-08 10:55 -13.15289 -74.62787 35121 ft 512 kts 116°
2026-05-08 10:55 -13.18289 -74.56170 35130 ft 512 kts 116°
2026-05-08 10:56 -13.21288 -74.49557 35170 ft 511 kts 116°
2026-05-08 10:56 -13.24279 -74.42926 35222 ft 511 kts 116°
2026-05-08 10:57 -13.26772 -74.37377 35254 ft 511 kts 116°
2026-05-08 10:57 -13.31794 -74.27766 35269 ft 509 kts 123°
2026-05-08 10:58 -13.35172 -74.21438 35239 ft 511 kts 109°
2026-05-08 10:58 -13.35928 -74.17867 35230 ft 512 kts 97°
2026-05-08 10:58 -13.36366 -74.14237 35060 ft 512 kts 97°
2026-05-08 10:59 -13.37204 -74.06966 35045 ft 513 kts 97°
2026-05-08 10:59 -13.38037 -73.99683 35049 ft 514 kts 97°
2026-05-08 11:00 -13.38884 -73.92384 35045 ft 515 kts 97°
2026-05-08 11:00 -13.39741 -73.85083 35048 ft 515 kts 97°
2026-05-08 11:01 -13.40586 -73.77778 35050 ft 515 kts 97°
2026-05-08 11:01 -13.41421 -73.70476 35044 ft 515 kts 97°
2026-05-08 11:02 -13.42677 -73.59527 34977 ft 514 kts 97°
2026-05-08 11:03 -13.43516 -73.52235 34957 ft 514 kts 97°
2026-05-08 11:03 -13.44352 -73.44936 34953 ft 514 kts 97°
2026-05-08 11:04 -13.45187 -73.37642 35084 ft 514 kts 97°
2026-05-08 11:04 -13.46018 -73.30342 35103 ft 513 kts 97°
2026-05-08 11:04 -13.46432 -73.26714 34536 ft 511 kts 97°
2026-05-08 11:05 -13.46847 -73.23077 33696 ft 513 kts 97°
2026-05-08 11:05 -13.47257 -73.19459 33350 ft 510 kts 97°
2026-05-08 11:05 -13.47669 -73.15823 32939 ft 514 kts 97°
2026-05-08 11:05 -13.48082 -73.12172 32459 ft 515 kts 97°
2026-05-08 11:06 -13.48494 -73.08516 32110 ft 515 kts 96°
2026-05-08 11:06 -13.48906 -73.04857 31739 ft 516 kts 96°
2026-05-08 11:06 -13.49316 -73.01195 31382 ft 516 kts 96°
2026-05-08 11:06 -13.49724 -72.97533 31032 ft 516 kts 96°
2026-05-08 11:07 -13.50132 -72.93873 30681 ft 516 kts 96°
2026-05-08 11:07 -13.50544 -72.90208 30346 ft 516 kts 96°
2026-05-08 11:07 -13.50957 -72.86545 29988 ft 517 kts 96°
2026-05-08 11:07 -13.51370 -72.82878 29590 ft 517 kts 96°
2026-05-08 11:08 -13.51782 -72.79214 29185 ft 516 kts 96°
2026-05-08 11:08 -13.52191 -72.75551 28797 ft 515 kts 96°
2026-05-08 11:08 -13.52594 -72.71898 28418 ft 514 kts 96°
2026-05-08 11:08 -13.52998 -72.68254 28030 ft 510 kts 96°
2026-05-08 11:09 -13.53397 -72.64663 27508 ft 501 kts 96°
2026-05-08 11:09 -13.53791 -72.61118 26997 ft 498 kts 96°
2026-05-08 11:09 -13.54182 -72.57587 26495 ft 496 kts 97°
2026-05-08 11:09 -13.54568 -72.54066 26004 ft 495 kts 97°
2026-05-08 11:10 -13.54952 -72.50569 25504 ft 491 kts 97°
2026-05-08 11:10 -13.55335 -72.47108 25029 ft 484 kts 97°
2026-05-08 11:10 -13.55712 -72.43691 24561 ft 478 kts 97°
2026-05-08 11:10 -13.56077 -72.40369 24106 ft 472 kts 97°
2026-05-08 11:11 -13.56443 -72.37038 23639 ft 467 kts 97°
2026-05-08 11:11 -13.56807 -72.33736 23105 ft 462 kts 97°
2026-05-08 11:11 -13.57166 -72.30462 22550 ft 460 kts 97°
2026-05-08 11:11 -13.57525 -72.27206 22030 ft 457 kts 97°
2026-05-08 11:12 -13.57880 -72.23977 21506 ft 453 kts 97°
2026-05-08 11:12 -13.58230 -72.20769 20999 ft 447 kts 97°
2026-05-08 11:12 -13.58571 -72.17632 20703 ft 436 kts 97°
2026-05-08 11:12 -13.58901 -72.14584 20262 ft 419 kts 97°
2026-05-08 11:13 -13.59214 -72.11692 19821 ft 397 kts 97°
2026-05-08 11:13 -13.59513 -72.08939 19399 ft 379 kts 97°
2026-05-08 11:13 -13.59801 -72.06303 18972 ft 363 kts 97°
2026-05-08 11:13 -13.60077 -72.03781 18522 ft 349 kts 97°
2026-05-08 11:14 -13.60345 -72.01340 18020 ft 338 kts 97°
2026-05-08 11:14 -13.60604 -71.98977 17517 ft 329 kts 97°
2026-05-08 11:14 -13.60856 -71.96669 17005 ft 321 kts 97°
2026-05-08 11:14 -13.61102 -71.94409 16500 ft 315 kts 97°
2026-05-08 11:15 -13.61343 -71.92191 16025 ft 310 kts 96°
2026-05-08 11:15 -13.61578 -71.90006 15540 ft 305 kts 96°
2026-05-08 11:15 -13.61803 -71.87902 15748 ft 286 kts 96°
2026-05-08 11:15 -13.62020 -71.85896 16553 ft 279 kts 96°
2026-05-08 11:16 -13.62233 -71.83916 17027 ft 274 kts 96°
2026-05-08 11:16 -13.62435 -71.82039 17164 ft 256 kts 96°
2026-05-08 11:16 -13.62627 -71.80244 17189 ft 251 kts 96°
2026-05-08 11:16 -13.62817 -71.78467 17167 ft 249 kts 96°
2026-05-08 11:17 -13.63006 -71.76700 17140 ft 249 kts 96°
2026-05-08 11:17 -13.63194 -71.74935 17114 ft 249 kts 96°
2026-05-08 11:17 -13.63384 -71.73168 17083 ft 248 kts 96°
2026-05-08 11:17 -13.63574 -71.71406 16899 ft 248 kts 96°
2026-05-08 11:18 -13.63763 -71.69648 16643 ft 247 kts 96°
2026-05-08 11:18 -13.63952 -71.67893 16369 ft 246 kts 96°
2026-05-08 11:18 -13.64139 -71.66144 16085 ft 246 kts 96°
2026-05-08 11:18 -13.64325 -71.64420 15816 ft 245 kts 96°
2026-05-08 11:19 -13.64510 -71.62680 15535 ft 245 kts 96°
2026-05-08 11:19 -13.64485 -71.60944 15260 ft 243 kts 75°
2026-05-08 11:19 -13.63765 -71.59398 15002 ft 241 kts 49°
2026-05-08 11:19 -13.62467 -71.58348 14754 ft 238 kts 22°
2026-05-08 11:20 -13.60878 -71.58006 14614 ft 231 kts 356°
2026-05-08 11:20 -13.59351 -71.58378 14509 ft 223 kts 331°
2026-05-08 11:20 -13.58158 -71.59329 14412 ft 215 kts 308°
2026-05-08 11:20 -13.57453 -71.60637 14316 ft 207 kts 285°
2026-05-08 11:21 -13.57224 -71.62062 14223 ft 200 kts 276°
2026-05-08 11:21 -13.57060 -71.63467 14132 ft 197 kts 276°
2026-05-08 11:21 -13.56891 -71.64872 14100 ft 205 kts 276°
2026-05-08 11:21 -13.56761 -71.66309 14858 ft 195 kts 273°
2026-05-08 11:22 -13.56708 -71.67773 15075 ft 221 kts 270°
2026-05-08 11:22 -13.56705 -71.69473 15012 ft 247 kts 269°
2026-05-08 11:22 -13.56733 -71.71286 15028 ft 265 kts 269°
2026-05-08 11:22 -13.56761 -71.73199 14546 ft 268 kts 269°
2026-05-08 11:23 -13.56744 -71.75096 14155 ft 262 kts 271°
2026-05-08 11:23 -13.56598 -71.76894 13997 ft 247 kts 277°
2026-05-08 11:23 -13.56238 -71.78563 13967 ft 234 kts 284°
2026-05-08 11:23 -13.55827 -71.80166 13872 ft 233 kts 285°
2026-05-08 11:24 -13.55371 -71.81798 13639 ft 240 kts 288°
2026-05-08 11:24 -13.54929 -71.83459 13458 ft 232 kts 285°
2026-05-08 11:24 -13.54590 -71.85039 12992 ft 222 kts 281°
2026-05-08 11:24 -13.54342 -71.86547 12233 ft 205 kts 277°
2026-05-08 11:25 -13.54185 -71.87956 11712 ft 192 kts 276°
2026-05-08 11:25 -13.54029 -71.89270 11227 ft 178 kts 277°
2026-05-08 11:25 -13.53890 -71.90479 10926 ft 161 kts 278°
2026-05-08 11:25 -13.53805 -71.91554 10799 ft 142 kts 271°
2026-05-08 11:26 -13.53683 -71.92535 10701 ft 138 kts 271°
2026-05-08 11:26 -13.53650 -71.93206 10738 ft 50 kts 276°
2026-05-08 11:26 -13.53640 -71.93309 10744 ft 1 kts 275°
2026-05-08 11:26 -13.53637 -71.93349 10745 ft 15 kts 275°